Regional Weather Roundup
Issued by NWS

Home | Current Version | Previous Version | Graphics & Text | Print | Product List | Glossary Off
Versions: 1 2 3 4 5 6 7 8 9 10 11 12 13 14 15 16 17 18 19 20 21 22 23 24 25 26 27 28 29 30 31 32 33 34 35 36 37 38 39 40 41 42 43 44 45 46 47 48 49 50

000
ASUS43 KTOP 230808
RWRKS

WEATHER ROUNDUP FOR KANSAS
NATIONAL WEATHER SERVICE GOODLAND KS
200 AM CST THU NOV 23 2017

NOTE:  "FAIR" INDICATES FEW OR NO CLOUDS BELOW 12,000 FEET WITH NO
SIGNIFICANT WEATHER AND/OR OBSTRUCTIONS TO VISIBILITY.

KSZ001>006-013>018-027>032-041>047-230900-
NORTHWEST KANSAS

CITY           SKY/WX    TMP DP  RH WIND       PRES   REMARKS
GOODLAND       CLOUDY    44  36  73 W7        30.15F
HAYS           CLEAR     35  29  78 W7        30.08S
HILL CITY      CLEAR     44  36  73 W8        30.09F
RUSSELL        CLOUDY    36  25  64 SW8       30.05F
$$

KSZ061>065-074>080-084>089-230900-
SOUTHWEST KANSAS

CITY           SKY/WX    TMP DP  RH WIND       PRES   REMARKS
DODGE CITY     CLOUDY    46  31  55 W9        30.11S
ELKHART        CLOUDY    51  33  49 W12       30.17S
GARDEN CITY    CLOUDY    45  32  60 W12       30.12S
GREAT BEND     CLOUDY    35  24  64 SW6       30.08F
LIBERAL        CLOUDY    41  30  65 NW10      30.14S
PRATT          CLEAR     34  21  60 SW8       30.09F
$$

KSZ066>073-081>083-090>101-230900-
SOUTHEAST KANSAS

CITY           SKY/WX    TMP DP  RH WIND       PRES   REMARKS
CHANUTE        CLEAR     33  22  63 S7        30.14F
COFFEYVILLE    CLEAR     31  25  78 S9        30.16F
HUTCHINSON     CLEAR     36  23  59 S5        30.09F
MEDICINE LODGE   N/A     34  22  61 CALM      30.11F
NEWTON         CLEAR     36  21  54 SW10      30.10F WCI  28
PARSONS        CLEAR     33  24  69 S5        30.16F
WICHITA INTL   CLEAR     33  23  66 S5        30.12S
WICHITA JABRA  CLEAR     38  21  50 S12       30.11S WCI  30
WICHITA MCCONL CLOUDY    35  19  52 SW8       30.11F
WINFIELD       CLOUDY    34  24  67 S7        30.14F
$$

KSZ007>012-019>026-033>040-048>060-102>105-230900-
NORTHEAST KANSAS

CITY           SKY/WX    TMP DP  RH WIND       PRES   REMARKS
CONCORDIA      CLEAR     42  22  44 VRB5      30.04S
EMPORIA        CLOUDY    32  21  64 S6        30.09F
LAWRENCE       CLEAR     34  22  61 SE6       30.10F
MANHATTAN      CLEAR     38  22  52 SW8       30.07S
MARYSVILLE     CLEAR     36  23  60 SW6       30.04S
OLATHE IND     CLEAR     34  21  59 S8        30.10F
OLATHE EXE     CLEAR     32  21  64 S8        30.10F
SALINA         CLEAR     39  23  52 S6        30.08F
TOPEKA BILLARD CLEAR     33  22  63 SE5       30.09S
TOPEKA FORBES  CLOUDY    34  21  59 S6        30.08S
$$



USA.gov is the U.S. government's official web portal to all federal, state and local government web resources and services.